User: anonymous   Login
Location: Newport
(44.6370°N, 124.0520°W)
Time: 00:40:12
(UTC-07:00)
Language:

Vanguard 2 Rocket - Orbit

View from above orbital plane
View from above orbital plane
View from above satellite
View from above satellite

Ground track
Ground track

The orbit data is extracted from the following two-line orbital elements,

1    12U 59001B   18172.52100563 +.00000196 +00000-0 +95213-4 0  9999
2    12 032.9091 014.1470 1667654 214.3626 133.7119 11.44243192196692
Epoch (UTC): 21 June 2018 12:30:14
Eccentricity: 0.1667654
inclination: 32.9091°
perigee height: 553 km
apogee height: 3328 km
right ascension of ascending node: 14.1470°
argument of perigee: 214.3626°
revolutions per day: 11.44243192
mean anomaly at epoch: 133.7119°
orbit number at epoch: 19669

The dashed part of the orbit path shows where the satellite is in the earth's shadow,  

DLR